Somerville, NJ

4:41 PM EDT on May 26, 2017 (GMT -0400)
Somerset

Weather History for KSMQ - June, 2015

Change the Weather History Date:

Thursday, June 18, 2015

  Actual Average Record
Temperature  
Mean Temperature 66 °F -  
Max Temperature 68 °F 80 °F 98 °F (1957)
Min Temperature 64 °F 58 °F 41 °F (1950)
Cooling Degree Days 1    
Growing Degree Days 16 (Base 50)    
Moisture  
Dew Point 63 °F    
Average Humidity 88    
Maximum Humidity 94    
Minimum Humidity 73    
Precipitation  
Precipitation 0.04 in - - ()
Sea Level Pressure  
Sea Level Pressure 30.03 in    
Wind  
Wind Speed 2 mph (SSE)    
Max Wind Speed 6 mph    
Max Gust Speed -    
Visibility 5 miles    
Events Rain    
Averages and records for this station are not official NWS values.
T = Trace of Precipitation, MM = Missing Value Source: NWS Daily Summary

Daily Weather History Graph

Daily Weather History Graph

Search for Another Location

Airport or City:

Trip Planner

Search our weather history database for the weather conditions in past years. The results will help you decide how hot, cold, wet, or windy it might be!

Date:

Astronomy

Jun. 18, 2015 Rise Set
Actual Time 5:27 AM EDT 8:32 PM EDT
Civil Twilight 4:54 AM EDT 9:05 PM EDT
Nautical Twilight 4:11 AM EDT 9:48 PM EDT
Astronomical Twilight 3:21 AM EDT 10:38 PM EDT
Moon 7:36 AM EDT (6/18) 10:02 PM EDT (6/18)
Length of Visible Light 16h 11m
Length of Day
15h 04m
Waxing Crescent, 5% of the Moon is Illuminated
Jun 18
Waxing Crescent
Jun 24
First Quarter
Jul 1
Full
Jul 8
Last Quarter
Jul 15
New

Hourly Weather History & Observations

Time (EDT) Temp. Dew Point Humidity Pressure Visibility Wind Dir Wind Speed Gust Speed Precip Events Conditions
12:53 AM 66.0 °F 57.0 °F 73% 30.10 in 10.0 mi Calm Calm - N/A   Mostly Cloudy
1:53 AM 66.0 °F 57.9 °F 75% 30.09 in 10.0 mi Calm Calm - N/A   Overcast
2:53 AM 64.9 °F 57.9 °F 78% 30.09 in 10.0 mi Calm Calm - N/A   Overcast
3:53 AM 64.9 °F 60.1 °F 84% 30.07 in 10.0 mi Calm Calm - N/A   Overcast
4:53 AM 64.9 °F 60.1 °F 84% 30.07 in 10.0 mi Calm Calm - N/A   Overcast
5:53 AM 64.9 °F 60.1 °F 84% 30.07 in 10.0 mi North - - N/A   Overcast
6:46 AM 64.9 °F 61.0 °F 87% 30.08 in 4.0 mi SSE 3.5 mph - 0.01 in Rain Light Rain
6:53 AM 64.9 °F 61.0 °F 87% 30.08 in 3.0 mi SE 5.8 mph - 0.01 in Rain Light Rain
7:24 AM 64.9 °F 62.1 °F 90% 30.08 in 5.0 mi Calm Calm - 0.01 in Rain Light Rain
7:53 AM 64.9 °F 61.0 °F 87% 30.08 in 10.0 mi Variable 5.8 mph - 0.01 in   Overcast
8:26 AM 64.0 °F 62.1 °F 93% 30.08 in 2.5 mi SSE 3.5 mph - 0.00 in Rain Light Rain
8:42 AM 64.0 °F 61.0 °F 90% 30.08 in 3.0 mi SSE 5.8 mph - 0.01 in Rain Light Rain
8:53 AM 64.0 °F 61.0 °F 90% 30.08 in 3.0 mi South 5.8 mph - 0.01 in   Overcast
9:28 AM 64.0 °F 62.1 °F 93% 30.07 in 4.0 mi Variable 4.6 mph - N/A   Overcast
9:53 AM 64.9 °F 62.1 °F 90% 30.07 in 10.0 mi Variable 3.5 mph - N/A   Overcast
10:07 AM 64.9 °F 62.1 °F 90% 30.07 in 4.0 mi SE 4.6 mph - 0.00 in Rain Light Rain
10:53 AM 64.9 °F 62.1 °F 90% 30.06 in 4.0 mi SSE 3.5 mph - 0.01 in Rain Light Rain
11:08 AM 64.9 °F 62.1 °F 90% 30.06 in 2.5 mi Calm Calm - 0.00 in Rain Light Rain
11:29 AM 64.9 °F 63.0 °F 93% 30.06 in 3.0 mi Variable 4.6 mph - 0.00 in   Overcast
11:49 AM 66.2 °F 62.6 °F 88% 30.05 in 3.0 mi South 5.8 mph - 0.00 in   Overcast
11:53 AM 66.0 °F 63.0 °F 90% 30.05 in 2.5 mi SSE 4.6 mph - 0.00 in   Overcast
11:58 AM 66.0 °F 63.0 °F 90% 30.05 in 1.8 mi SSE 4.6 mph - N/A   Overcast
12:09 PM 66.0 °F 63.0 °F 90% 30.05 in 1.8 mi SSE 3.5 mph - N/A   Overcast
12:21 PM 66.0 °F 63.0 °F 90% 30.05 in 2.0 mi SSE 3.5 mph - N/A   Overcast
12:53 PM 66.0 °F 63.0 °F 90% 30.04 in 2.5 mi Variable 3.5 mph - N/A   Overcast
1:17 PM 66.0 °F 64.0 °F 93% 30.04 in 2.0 mi SSE 3.5 mph - N/A   Overcast
1:26 PM 66.9 °F 64.0 °F 90% 30.03 in 3.0 mi SSE 4.6 mph - N/A   Overcast
1:48 PM 66.2 °F 64.4 °F 94% 30.03 in 3.0 mi Variable 3.5 mph - N/A   Overcast
1:53 PM 66.9 °F 64.0 °F 90% 30.02 in 3.0 mi Variable 4.6 mph - N/A   Overcast
1:59 PM 66.9 °F 64.0 °F 90% 30.01 in 2.5 mi Variable 4.6 mph - N/A   Overcast
2:11 PM 66.9 °F 64.9 °F 93% 30.01 in 4.0 mi SSE 3.5 mph - N/A   Overcast
2:29 PM 66.9 °F 64.0 °F 90% 30.01 in 2.5 mi Variable 4.6 mph - N/A   Overcast
2:39 PM 66.9 °F 64.0 °F 90% 30.01 in 3.0 mi South 3.5 mph - N/A   Overcast
2:53 PM 66.9 °F 64.0 °F 90% 30.01 in 3.0 mi Calm Calm - N/A   Overcast
3:07 PM 68.0 °F 64.0 °F 87% 30.00 in 7.0 mi South 3.5 mph - N/A   Overcast
3:14 PM 66.9 °F 64.0 °F 90% 30.00 in 6.0 mi South 3.5 mph - N/A   Overcast
3:53 PM 66.9 °F 64.0 °F 90% 29.99 in 9.0 mi South 5.8 mph - N/A   Overcast
4:53 PM 66.9 °F 63.0 °F 87% 29.97 in 10.0 mi North - - N/A   Overcast
5:53 PM 66.9 °F 63.0 °F 87% 29.95 in 9.0 mi South 3.5 mph - N/A   Overcast
6:53 PM 68.0 °F 64.0 °F 87% 29.95 in 8.0 mi North - - N/A   Overcast
7:53 PM 68.0 °F 64.0 °F 87% 29.94 in 6.0 mi Calm Calm - N/A   Overcast
8:53 PM 66.9 °F 64.0 °F 90% 29.94 in 7.0 mi South 4.6 mph - N/A   Overcast
9:53 PM 66.9 °F 64.0 °F 90% 29.96 in 7.0 mi Calm Calm - N/A   Overcast
10:53 PM 66.9 °F 64.0 °F 90% 29.94 in 7.0 mi Calm Calm - N/A   Overcast
11:26 PM 66.9 °F 64.0 °F 90% 29.93 in 7.0 mi Calm Calm - N/A   Overcast
11:53 PM 66.9 °F 64.0 °F 90% 29.93 in 7.0 mi Calm Calm - N/A   Overcast